MDT,Max TemperatureF,Mean TemperatureF,Min TemperatureF,Max Dew PointF,MeanDew PointF,Min DewpointF,Max Humidity, Mean Humidity, Min Humidity, Max Sea Level PressureIn, Mean Sea Level PressureIn, Min Sea Level PressureIn, Max VisibilityMiles, Mean VisibilityMiles, Min VisibilityMiles, Max Wind SpeedMPH, Mean Wind SpeedMPH, Max Gust SpeedMPH,PrecipitationIn, CloudCover, Events, WindDirDegrees
2012-10-1,75,50,28,29,25,23,81,40,15,30.25,30.14,30.05,10,10,10,12,7,,0.00,0,,273
2012-10-2,75,52,30,27,23,18,79,39,12,30.30,30.03,29.94,10,10,10,15,7,23,0.00,0,,279
2012-10-3,75,52,30,27,22,19,76,35,14,30.08,29.96,29.91,10,10,10,21,7,32,0.00,0,,266
2012-10-4,72,52,34,26,23,20,64,34,16,30.05,29.96,29.88,10,10,10,18,6,26,0.00,0,,247
2012-10-5,64,50,35,27,23,20,64,36,19,30.04,29.96,29.89,10,10,10,22,7,28,0.00,0,,291
2012-10-6,64,48,32,22,14,7,57,33,11,30.05,29.96,29.89,10,10,10,15,7,26,0.00,0,,323
2012-10-7,64,42,21,10,7,2,57,26,9,30.20,30.02,29.94,10,10,10,16,7,26,0.00,0,,299
2012-10-8,66,46,28,22,16,10,61,34,16,30.06,29.97,29.90,10,10,10,17,7,24,0.00,0,,270
2012-10-9,64,46,28,32,26,21,78,48,27,30.06,29.97,29.92,10,10,10,10,3,17,0.00,0,,197
2012-10-10,66,49,34,35,29,26,76,52,28,30.05,29.97,29.90,10,10,10,14,7,23,0.00,1,,216
2012-10-11,57,41,27,42,34,24,90,75,40,30.21,29.97,29.86,10,9,5,21,6,25,0.14,4,Rain,153
2012-10-12,46,40,33,43,37,32,100,86,58,30.12,30.00,29.81,10,8,2,20,10,26,0.40,8,Rain-Snow,163
2012-10-13,55,44,32,40,34,30,100,82,49,30.28,30.13,30.00,10,8,2,17,4,23,0.14,5,Rain-Snow,333
2012-10-14,60,45,30,36,32,28,89,69,31,30.32,30.23,30.15,10,10,10,10,6,,0.00,0,,273
2012-10-15,66,47,28,33,27,12,89,58,13,30.22,30.09,30.00,10,10,10,15,7,18,0.00,0,,265
2012-10-16,69,50,30,38,30,25,82,50,23,30.04,29.89,29.75,10,10,10,17,10,25,0.00,0,,284
2012-10-17,57,46,35,38,17,1,86,40,14,30.12,29.98,29.83,10,10,10,18,10,24,0.00,1,,315
2012-10-18,66,47,28,21,13,7,61,34,14,30.20,30.15,30.07,10,10,10,12,7,,0.00,0,,319
2012-10-19,69,46,24,24,19,15,77,45,14,30.18,30.04,29.93,10,10,10,17,7,24,0.00,0,,280
2012-10-20,68,48,28,24,20,14,75,44,15,29.96,29.83,29.72,10,10,10,16,6,21,0.00,0,,230
2012-10-21,61,42,26,38,31,20,85,61,36,29.86,29.79,29.73,10,10,10,20,6,25,0.00,3,,202
2012-10-22,57,49,41,40,34,28,89,60,36,29.99,29.73,29.68,10,10,10,23,13,37,0.00,5,,180
2012-10-23,57,47,39,32,21,11,65,39,19,29.97,29.73,29.67,10,10,10,28,18,45,0.00,0,,203
2012-10-24,46,32,18,30,20,13,88,58,35,30.04,29.83,29.70,10,9,2,23,7,32,0.01,2,Snow,298
2012-10-25,43,28,15,16,13,9,88,60,26,30.26,30.15,30.05,10,10,10,21,7,31,0.00,0,,301
2012-10-26,44,26,10,16,5,-7,84,49,12,30.43,30.30,30.20,10,10,10,13,7,16,0.00,0,,313
2012-10-27,55,36,16,15,9,1,68,38,19,30.28,30.16,30.06,10,10,10,16,5,23,0.00,0,,274
2012-10-28,59,40,24,17,16,14,69,44,19,30.22,30.13,30.04,10,10,10,12,6,,0.00,0,,244
2012-10-29,63,44,24,19,17,15,69,42,17,30.27,30.17,30.10,10,10,10,12,8,16,0.00,0,,277
2012-10-30,63,44,27,21,19,16,69,45,19,30.27,30.16,30.07,10,10,10,12,7,,0.00,0,,243
2012-10-31,62,44,26,21,18,16,69,46,19,30.22,30.12,30.04,10,10,10,14,8,21,0.00,0,,236